Regional Weather Roundup
Issued by NWS

Home | Current Version | Previous Version | Graphics & Text | Print | Product List | Glossary On
Versions: 1 2 3 4 5 6 7 8 9 10 11 12 13 14 15 16 17 18 19 20 21 22 23 24 25 26 27
000
ASUS45 KPSR 260710
RWRAZ

ARIZONA HOURLY REGIONAL WEATHER ROUNDUP
NATIONAL WEATHER SERVICE PHOENIX AZ
1200 AM MST MON SEP 26 2016

NOTE: FAIR INDICATES FEW OR NO CLOUDS BELOW 12,000 FEET WITH NO
SIGNIFICANT WEATHER AND/OR OBSTRUCTIONS TO VISIBILITY.

AZZ001>003-036-260800-
NORTHWEST ARIZONA

CITY           SKY/WX    TMP DP  RH WIND       PRES   REMARKS
BULLHEAD CITY  CLEAR     82  32  16 N9        30.02S
KINGMAN        CLEAR     69  31  24 NE13      30.20F
$$

AZZ004>008-015-016-018-260800-
NORTH CENTRAL ARIZONA

CITY           SKY/WX    TMP DP  RH WIND       PRES   REMARKS
GRAND CANYON   CLEAR     58  29  33 NE12G22   30.42S
PRESCOTT       PTCLDY    57  38  48 W5        30.28R
FLAGSTAFF      PTCLDY    55  29  36 NE9       30.42R
PAYSON         MOCLDY    68  30  24 NE10G17   30.28S
PAGE           CLEAR     59  36  42 W3        30.33S
$$

AZZ009>014-017-260800-
NORTHEAST ARIZONA

CITY           SKY/WX    TMP DP  RH WIND       PRES   REMARKS
WINSLOW        MOCLDY    60  31  33 NW9       30.32R
SAINT JOHNS    PTCLDY    59  34  39 E8        30.33S
WINDOW ROCK    CLEAR     55  31  39 E7        30.43S
SHOW LOW       PTCLDY    50  27  40 CALM      30.36S
$$

AZZ023-260800-
GREATER PHOENIX AREA

CITY           SKY/WX    TMP DP  RH WIND       PRES   REMARKS
PHOENIX        PTCLDY    81  42  25 CALM      29.94R
BUCKEYE        PTCLDY    75  34  22 N6        29.95S
LUKE AFB       CLEAR     77  36  22 N10       29.94S
DEER VALLEY    CLEAR     80  31  16 N10       29.97S
SCOTTSDALE     CLEAR     85  31  14 NE10      29.98S
MESA-GATEWAY   PTCLDY    77  34  20 SE7       29.97S
$$

AZZ027-028-260800-
SOUTHWEST MARICOPA COUNTY AND PINAL COUNTY

CITY           SKY/WX    TMP DP  RH WIND       PRES   REMARKS
CASA GRANDE    CLEAR     79  36  21 SE6       29.99R
GILA BEND      FAIR      73  31  22 SE7       29.91F
$$

AZZ503-504-507>509-260800-
SOUTHEAST ARIZONA

CITY           SKY/WX    TMP DP  RH WIND       PRES   REMARKS
TUCSON         CLEAR     71  43  36 S10       30.08S
DAVIS-MONTHAN  CLEAR     75  41  30 E9        30.07S
NOGALES        PTCLDY    61  45  55 SE5       30.13F
SIERRA VISTA   MOCLDY    61  42  50 S6        30.21S
DOUGLAS        MOCLDY    69  49  48 E18G24    30.20R
SAFFORD        CLOUDY    74  46  36 E10       30.17R
$$

AZZ020-021-025-026-031-260800-
SOUTHWEST ARIZONA

CITY           SKY/WX    TMP DP  RH WIND       PRES   REMARKS
YUMA           CLEAR     82  36  19 N5        29.89F
$$

CAZ031-033-041-043-047-048-061-260800-
SOUTHERN CALIFORNIA

CITY           SKY/WX    TMP DP  RH WIND       PRES   REMARKS
DOWNTOWN L.A.  CLEAR     72  53  51 CALM      29.93S
L.A. AIRPORT   CLEAR     78  48  34 NE5       29.93S
SAN DIEGO      CLEAR     75  48  38 CALM      29.95S
BURBANK        CLEAR     79  33  19 N5        29.97R
ONTARIO        CLEAR     84  22  10 SE6       29.99R
RIVERSIDE      CLEAR     80  25  13 CALM      29.99S
PALM SPRINGS   CLEAR     84  33  16 W8        29.98S
EL CENTRO NAS  CLEAR     78  39  24 N10       29.91F
IMPERIAL       CLEAR     78  48  34 NW6       29.89F
BLYTHE         CLEAR     83  32  16 NW12      29.94R
NEEDLES        CLEAR     83  31  15 N9        30.02S
$$

NVZ020-UTZ003-260800-
SOUTHERN NEVADA-UTAH

CITY           SKY/WX    TMP DP  RH WIND       PRES   REMARKS
LAS VEGAS      CLEAR     77  23  13 N13       30.16S
SALT LAKE CITY CLEAR     52  45  77 SE7       30.43R
$$

NMZ009-TXZ055-260800-
NEW MEXICO-WEST TEXAS

CITY           SKY/WX    TMP DP  RH WIND       PRES   REMARKS
ALBUQUERQUE    PTCLDY    59  35  40 E14       30.42R
EL PASO        LGT RAIN  64  41  42 NE15G25   30.27S
$$


........................KEY........................
SKY/WX - SKY CONDITION/WEATHER
TMP    - TEMPERATURE IN FAHRENHEIT
DP     - DEW POINT IN FAHRENHEIT
RH     - RELATIVE HUMIDITY IN PERCENT
WIND   - DIRECTION AND SPEED IN MILES PER HOUR (MPH)
VRB    - VARIABLE WIND DIRECTION
PRES   - MEAN SEA LEVEL PRESSURE IN INCHES OF MERCURY
         F - FALLING PRESSURE   R - RISING PRESSURE
         S - STEADY PRESSURE
VSB    - VISIBILITY IN MILES
HX     - HEAT INDEX IN FAHRENHEIT
WCI    - WIND CHILL INDEX IN FAHRENHEIT
TC     - TEMPERATURE IN CELSIUS WHICH IS ALSO KNOWN AS
         TEMPERATURE IN CENTIGRADE
AFB    - AIR FORCE BASE
         LUKE AFB IS LUKE AIR FORCE BASE
         DAVIS-MONTHAN IS DAVIS-MONTHAN AIR FORCE BASE
NAS    - NAVAL AIR STATION
         EL CENTRO NAS IS EL CENTRO NAVAL AIR STATION
N/A    - NOT AVAILABLE





USA.gov is the U.S. government's official web portal to all federal, state and local government web resources and services.